TimeCDT,TemperatureF,Dew PointF,Humidity,Sea Level PressureIn,VisibilityMPH,Wind Direction,Wind SpeedMPH,Gust SpeedMPH,PrecipitationIn,Events,Conditions,WindDirDegrees,DateUTC
12:15 AM,39.9,29.3,66,30.29,10.0,Calm,Calm,-,N/A,,Clear,0,2012-09-23 05:15:00
12:35 AM,38.1,30.2,73,30.29,10.0,WNW,4.6,-,N/A,,Clear,290,2012-09-23 05:35:00
12:55 AM,39.7,32.2,74,30.29,10.0,WNW,3.5,-,N/A,,Clear,300,2012-09-23 05:55:00
1:15 AM,39.2,30.0,70,30.29,10.0,WNW,3.5,-,N/A,,Clear,300,2012-09-23 06:15:00
1:35 AM,37.4,29.5,73,30.29,10.0,WNW,3.5,-,N/A,,Clear,300,2012-09-23 06:35:00
1:55 AM,39.0,28.9,67,30.30,10.0,WNW,4.6,-,N/A,,Clear,300,2012-09-23 06:55:00
2:15 AM,37.9,28.8,70,30.30,10.0,West,4.6,-,N/A,,Clear,280,2012-09-23 07:15:00
2:35 AM,36.7,29.1,74,30.30,10.0,WNW,3.5,-,N/A,,Clear,290,2012-09-23 07:35:00
2:55 AM,36.1,28.8,75,30.30,10.0,Calm,Calm,-,N/A,,Clear,0,2012-09-23 07:55:00
3:15 AM,34.9,28.9,79,30.30,10.0,Calm,Calm,-,N/A,,Clear,0,2012-09-23 08:15:00
3:35 AM,35.6,28.8,76,30.30,10.0,Calm,Calm,-,N/A,,Clear,0,2012-09-23 08:35:00
3:55 AM,35.8,28.8,76,30.30,10.0,Calm,Calm,-,N/A,,Clear,0,2012-09-23 08:55:00
4:15 AM,34.9,28.8,78,30.30,10.0,Calm,Calm,-,N/A,,Clear,0,2012-09-23 09:15:00
4:35 AM,36.0,28.4,74,30.30,10.0,Calm,Calm,-,N/A,,Clear,0,2012-09-23 09:35:00
4:55 AM,34.0,29.3,83,30.30,10.0,Calm,Calm,-,N/A,,Clear,0,2012-09-23 09:55:00
5:15 AM,34.7,29.1,80,30.30,10.0,Calm,Calm,-,N/A,,Clear,0,2012-09-23 10:15:00
5:35 AM,34.7,28.9,79,30.30,10.0,Calm,Calm,-,N/A,,Clear,0,2012-09-23 10:35:00
5:55 AM,34.3,29.1,81,30.30,10.0,WNW,3.5,-,N/A,,Clear,300,2012-09-23 10:55:00
6:15 AM,34.5,29.1,81,30.30,10.0,Calm,Calm,-,N/A,,Clear,0,2012-09-23 11:15:00
6:35 AM,34.9,29.1,79,30.31,10.0,Calm,Calm,-,N/A,,Clear,0,2012-09-23 11:35:00
6:55 AM,34.2,29.1,82,30.31,10.0,Calm,Calm,-,N/A,,Clear,0,2012-09-23 11:55:00
7:15 AM,34.0,29.3,83,30.32,10.0,Calm,Calm,-,N/A,,Clear,0,2012-09-23 12:15:00
7:35 AM,34.2,29.3,82,30.33,10.0,Calm,Calm,-,N/A,,Clear,0,2012-09-23 12:35:00
7:55 AM,35.1,30.0,82,30.34,10.0,Calm,Calm,-,N/A,,Clear,0,2012-09-23 12:55:00
8:15 AM,36.5,31.6,83,30.35,10.0,Calm,Calm,-,N/A,,Clear,0,2012-09-23 13:15:00
8:35 AM,37.2,32.4,83,30.35,10.0,Calm,Calm,-,N/A,,Clear,0,2012-09-23 13:35:00
8:55 AM,40.6,33.4,75,30.35,10.0,Calm,Calm,-,N/A,,Clear,0,2012-09-23 13:55:00
9:15 AM,45.0,32.0,60,30.36,10.0,East,4.6,-,N/A,,Clear,100,2012-09-23 14:15:00
9:35 AM,47.7,32.2,55,30.36,10.0,ESE,4.6,-,N/A,,Clear,110,2012-09-23 14:35:00
9:55 AM,49.8,31.8,50,30.36,10.0,East,5.8,-,N/A,,Clear,100,2012-09-23 14:55:00
10:15 AM,52.2,32.0,46,30.36,10.0,SE,5.8,-,N/A,,Clear,130,2012-09-23 15:15:00
10:35 AM,53.6,32.2,44,30.36,10.0,ESE,3.5,-,N/A,,Clear,120,2012-09-23 15:35:00
10:55 AM,55.4,31.6,40,30.36,10.0,SE,4.6,-,N/A,,Clear,130,2012-09-23 15:55:00
11:15 AM,57.2,32.0,38,30.36,10.0,Calm,Calm,-,N/A,,Clear,0,2012-09-23 16:15:00
11:35 AM,58.3,32.0,37,30.35,10.0,SE,4.6,-,N/A,,Clear,140,2012-09-23 16:35:00
11:55 AM,59.9,32.2,35,30.35,10.0,Calm,Calm,-,N/A,,Clear,0,2012-09-23 16:55:00
12:15 PM,62.1,32.2,33,30.34,10.0,East,4.6,-,N/A,,Clear,80,2012-09-23 17:15:00
12:35 PM,62.6,31.8,32,30.33,10.0,Calm,Calm,-,N/A,,Clear,0,2012-09-23 17:35:00
12:55 PM,64.0,30.2,28,30.32,10.0,South,4.6,-,N/A,,Clear,190,2012-09-23 17:55:00
1:15 PM,65.7,29.8,26,30.31,10.0,East,5.8,-,N/A,,Clear,100,2012-09-23 18:15:00
1:35 PM,64.9,29.7,27,30.30,10.0,Calm,Calm,-,N/A,,Clear,0,2012-09-23 18:35:00
1:55 PM,66.4,30.2,26,30.29,10.0,SE,4.6,-,N/A,,Clear,130,2012-09-23 18:55:00
2:15 PM,66.0,30.0,26,30.28,10.0,Calm,Calm,-,N/A,,Clear,0,2012-09-23 19:15:00
2:35 PM,66.2,30.4,26,30.27,10.0,Calm,Calm,-,N/A,,Clear,0,2012-09-23 19:35:00
2:55 PM,67.6,31.5,26,30.26,10.0,SSW,3.5,-,N/A,,Clear,210,2012-09-23 19:55:00
3:15 PM,68.5,31.5,25,30.26,10.0,South,5.8,-,N/A,,Clear,170,2012-09-23 20:15:00
3:35 PM,69.1,31.5,25,30.25,10.0,SE,4.6,-,N/A,,Clear,130,2012-09-23 20:35:00
3:55 PM,69.4,32.0,25,30.24,10.0,East,5.8,-,N/A,,Clear,90,2012-09-23 20:55:00
4:15 PM,68.9,31.8,25,30.23,10.0,SE,8.1,-,N/A,,Clear,140,2012-09-23 21:15:00
4:35 PM,69.4,31.8,25,30.22,10.0,ESE,3.5,-,N/A,,Clear,110,2012-09-23 21:35:00
4:55 PM,69.8,32.0,25,30.22,10.0,SE,3.5,-,N/A,,Clear,140,2012-09-23 21:55:00
5:15 PM,69.3,32.0,25,30.21,10.0,East,4.6,-,N/A,,Clear,100,2012-09-23 22:15:00
5:35 PM,69.1,32.2,25,30.21,10.0,SE,8.1,-,N/A,,Clear,140,2012-09-23 22:35:00
5:55 PM,68.9,32.7,26,30.21,10.0,SSE,6.9,-,N/A,,Clear,150,2012-09-23 22:55:00
6:15 PM,68.2,33.3,27,30.20,10.0,SSE,6.9,-,N/A,,Clear,150,2012-09-23 23:15:00
6:35 PM,67.6,33.3,28,30.20,10.0,SE,6.9,-,N/A,,Clear,140,2012-09-23 23:35:00
6:55 PM,65.8,33.4,30,30.20,10.0,ESE,5.8,-,N/A,,Clear,120,2012-09-23 23:55:00
7:15 PM,63.9,33.8,33,30.20,10.0,ESE,5.8,-,N/A,,Clear,110,2012-09-24 00:15:00
7:35 PM,62.4,33.8,34,30.20,10.0,ESE,5.8,-,N/A,,Clear,110,2012-09-24 00:35:00
7:55 PM,60.8,34.2,37,30.20,10.0,East,5.8,-,N/A,,Clear,100,2012-09-24 00:55:00
8:15 PM,59.2,34.3,39,30.21,10.0,ESE,5.8,-,N/A,,Clear,110,2012-09-24 01:15:00
8:35 PM,58.5,34.5,41,30.21,10.0,ESE,4.6,-,N/A,,Clear,110,2012-09-24 01:35:00
8:55 PM,57.2,34.7,43,30.21,10.0,ESE,6.9,-,N/A,,Clear,110,2012-09-24 01:55:00
9:15 PM,56.7,34.9,44,30.21,10.0,ESE,4.6,-,N/A,,Clear,120,2012-09-24 02:15:00
9:35 PM,55.4,34.9,46,30.21,10.0,ESE,4.6,-,N/A,,Clear,120,2012-09-24 02:35:00
9:55 PM,54.9,35.1,47,30.21,10.0,SE,4.6,-,N/A,,Clear,130,2012-09-24 02:55:00
10:15 PM,55.4,35.2,47,30.21,10.0,ESE,3.5,-,N/A,,Clear,110,2012-09-24 03:15:00
10:35 PM,54.1,35.6,50,30.21,10.0,Calm,Calm,-,N/A,,Clear,0,2012-09-24 03:35:00
10:55 PM,53.2,37.4,55,30.21,10.0,Calm,Calm,-,N/A,,Clear,0,2012-09-24 03:55:00
11:15 PM,52.2,38.5,60,30.20,10.0,Calm,Calm,-,N/A,,Clear,0,2012-09-24 04:15:00
11:35 PM,52.7,38.5,58,30.20,10.0,Calm,Calm,-,N/A,,Clear,0,2012-09-24 04:35:00
11:55 PM,53.1,38.5,58,30.20,10.0,Calm,Calm,-,N/A,,Clear,0,2012-09-24 04:55:00